Overview Statistics Trail Chart Weather Telemetry Raw packets
 

This is the latest recevied weather packets stored in our database for station/object PP5CFL-2. If no packets are shown the sender has not sent any weather packets the latest 10 day(s).

<< 4 5 6 7 8 9 10 >>
Time Temp. Humidity Pressure Rain* Wind** Luminosity Snow
1788636120 18.33° C 69% 1017.2 hPa - - - -
1788635820 18.33° C 68% 1017.3 hPa - - - -
1788635520 18.33° C 69% 1017.4 hPa - - - -
1788635220 18.89° C 70% 1016.9 hPa - - - -
1788634920 18.89° C 68% 1016.7 hPa - - - -
1788634620 18.89° C 72% 1016.7 hPa - - - -
1788634320 18.89° C 74% 1016.7 hPa - - - -
1788634020 18.89° C 80% 1016.8 hPa - - - -
1788633720 19.44° C 84% 1016.7 hPa - - - -
1788633420 19.44° C 86% 1016.6 hPa - - - -
1788633120 19.44° C 88% 1016.5 hPa - - - -
1788632820 19.44° C 89% 1016.8 hPa - - - -
1788632520 18.89° C 92% 1016.8 hPa - - - -
1788632220 18.89° C 92% 1016.8 hPa - - - -
1788631920 18.89° C 92% 1016.8 hPa - - - -
1788631620 18.89° C 93% 1016.8 hPa - - - -
1788631320 18.33° C 93% 1017.3 hPa - - - -
1788631020 18.33° C 94% 1017.3 hPa - - - -
1788630720 18.33° C 94% 1017.1 hPa - - - -
1788630420 18.89° C 93% 1016.9 hPa - - - -
1788630120 18.89° C 94% 1017 hPa - - - -
1788629822 18.89° C 95% 1017 hPa - - - -
1788629520 18.89° C 94% 1017 hPa - - - -
1788629220 18.89° C 95% 1016.9 hPa - - - -
1788628920 18.33° C 96% 1017.1 hPa - - - -

* Rain since midnight (hover to see other rain measurements)
** Current wind speed in m/s (hover to see current wind gust speed)